DAL2 EGLL-KJFK

Flight info

Callsign DAL2
Flight time 7h 13m
Altitude 38000
Route ULTIB T420 TNT UL28 PENIL M144 BAGSO DCT RINUS DCT MALOT/M084F390 NATE RIKAL/N0483F400 N572A TOPPS DCT ENE PARCH4
Aircraft A359/H-SDE2E3GHIJ3J4J5LM1ORWXY/LB1D1

Departure

Time 2026-05-05 12:45
Airport London Heathrow Airport (EGLL)

Arrival

Time 2026-05-05 19:58
Airport John F. Kennedy International Airport (KJFK)
Time Latitude Longitude Altitude Speed Heading
2026-05-05 11:30 51.47162 -0.46190 94 ft 0 kts 55°
2026-05-05 11:31 51.47163 -0.46191 94 ft 0 kts 56°
2026-05-05 11:34 51.47162 -0.46191 94 ft 0 kts 56°
2026-05-05 11:43 51.47162 -0.46192 92 ft 0 kts 56°
2026-05-05 11:54 51.47162 -0.46193 92 ft 0 kts 56°
2026-05-05 12:01 51.47161 -0.46193 92 ft 0 kts 56°
2026-05-05 12:08 51.47161 -0.46194 92 ft 0 kts 56°
2026-05-05 12:25 51.47161 -0.46195 92 ft 0 kts 56°
2026-05-05 12:28 51.47160 -0.46197 92 ft 2 kts 56°
2026-05-05 12:28 51.47145 -0.46232 93 ft 4 kts 56°
2026-05-05 12:28 51.47133 -0.46261 93 ft 4 kts 46°
2026-05-05 12:28 51.47113 -0.46278 93 ft 4 kts 349°
2026-05-05 12:29 51.47091 -0.46261 93 ft 4 kts 326°
2026-05-05 12:29 51.47072 -0.46240 92 ft 1 kts 326°
2026-05-05 12:34 51.47072 -0.46241 92 ft 1 kts 326°
2026-05-05 12:34 51.47087 -0.46257 93 ft 4 kts 326°
2026-05-05 12:34 51.47115 -0.46287 92 ft 6 kts 325°
2026-05-05 12:34 51.47154 -0.46330 94 ft 8 kts 325°
2026-05-05 12:35 51.47203 -0.46386 96 ft 10 kts 321°
2026-05-05 12:35 51.47234 -0.46482 96 ft 10 kts 282°
2026-05-05 12:35 51.47238 -0.46603 95 ft 12 kts 269°
2026-05-05 12:35 51.47237 -0.46743 92 ft 13 kts 270°
2026-05-05 12:36 51.47226 -0.46845 95 ft 5 kts 225°
2026-05-05 12:36 51.47186 -0.46863 96 ft 9 kts 185°
2026-05-05 12:36 51.47118 -0.46864 95 ft 11 kts 179°
2026-05-05 12:36 51.47035 -0.46863 92 ft 13 kts 180°
2026-05-05 12:37 51.46939 -0.46862 94 ft 15 kts 179°
2026-05-05 12:37 51.46831 -0.46861 95 ft 16 kts 180°
2026-05-05 12:37 51.46756 -0.46892 97 ft 4 kts 249°
2026-05-05 12:37 51.46749 -0.46961 96 ft 9 kts 265°
2026-05-05 12:38 51.46747 -0.47095 96 ft 15 kts 269°
2026-05-05 12:38 51.46746 -0.47275 96 ft 19 kts 270°
2026-05-05 12:38 51.46745 -0.47523 96 ft 26 kts 270°
2026-05-05 12:38 51.46744 -0.47756 94 ft 17 kts 270°
2026-05-05 12:39 51.46744 -0.47964 92 ft 17 kts 270°
2026-05-05 12:39 51.46743 -0.48079 92 ft 0 kts 270°
2026-05-05 12:40 51.46743 -0.48128 92 ft 10 kts 269°
2026-05-05 12:40 51.46742 -0.48295 94 ft 18 kts 270°
2026-05-05 12:40 51.46742 -0.48526 92 ft 23 kts 270°
2026-05-05 12:40 51.46721 -0.48719 96 ft 14 kts 217°
2026-05-05 12:41 51.46642 -0.48748 96 ft 9 kts 189°
2026-05-05 12:41 51.46628 -0.48754 95 ft 0 kts 197°
2026-05-05 12:42 51.46588 -0.48773 93 ft 9 kts 198°
2026-05-05 12:42 51.46514 -0.48760 97 ft 13 kts 149°
2026-05-05 12:42 51.46479 -0.48626 93 ft 13 kts 95°
2026-05-05 12:42 51.46479 -0.48587 92 ft 0 kts 90°
2026-05-05 12:44 51.46479 -0.48474 93 ft 33 kts 90°
2026-05-05 12:44 51.46481 -0.47730 92 ft 98 kts 90°
2026-05-05 12:44 51.46486 -0.46317 98 ft 152 kts 89°
2026-05-05 12:44 51.46479 -0.44451 470 ft 169 kts 88°
2026-05-05 12:45 51.46509 -0.42687 1402 ft 153 kts 75°
2026-05-05 12:45 51.47022 -0.41183 1830 ft 162 kts 44°
2026-05-05 12:45 51.47860 -0.39805 2121 ft 183 kts 43°
2026-05-05 12:45 51.48798 -0.38225 2398 ft 207 kts 46°
2026-05-05 12:46 51.49797 -0.36425 2748 ft 229 kts 47°
2026-05-05 12:46 51.50872 -0.34422 3317 ft 242 kts 49°
2026-05-05 12:46 51.51789 -0.32102 3978 ft 249 kts 65°
2026-05-05 12:46 51.52402 -0.29499 4776 ft 250 kts 70°
2026-05-05 12:47 51.52985 -0.26831 5471 ft 256 kts 69°
2026-05-05 12:47 51.53870 -0.24363 6134 ft 261 kts 51°
2026-05-05 12:47 51.55142 -0.22225 6841 ft 266 kts 40°
2026-05-05 12:47 51.56765 -0.20751 7506 ft 271 kts 18°
2026-05-05 12:48 51.58623 -0.20602 7905 ft 274 kts 347°
2026-05-05 12:48 51.60351 -0.21898 7992 ft 276 kts 328°
2026-05-05 12:48 51.61958 -0.23626 7994 ft 277 kts 327°
2026-05-05 12:48 51.63573 -0.25335 7994 ft 278 kts 328°
2026-05-05 12:49 51.65207 -0.26995 7994 ft 278 kts 329°
2026-05-05 12:49 51.66857 -0.28625 7995 ft 278 kts 329°
2026-05-05 12:49 51.68492 -0.30230 7994 ft 278 kts 329°
2026-05-05 12:49 51.70145 -0.31848 8130 ft 278 kts 329°
2026-05-05 12:50 51.71822 -0.33480 8675 ft 281 kts 330°
2026-05-05 12:50 51.73504 -0.35108 9588 ft 281 kts 329°
2026-05-05 12:50 51.75197 -0.36744 10328 ft 287 kts 329°
2026-05-05 12:50 51.76951 -0.38438 10674 ft 306 kts 329°
2026-05-05 12:51 51.78842 -0.40266 10990 ft 325 kts 329°
2026-05-05 12:51 51.80836 -0.42196 11411 ft 340 kts 329°
2026-05-05 12:51 51.82871 -0.44165 12068 ft 346 kts 329°
2026-05-05 12:51 51.84954 -0.46185 12801 ft 350 kts 329°
2026-05-05 12:52 51.87065 -0.48237 13484 ft 356 kts 329°
2026-05-05 12:52 51.89180 -0.50295 14108 ft 361 kts 329°
2026-05-05 12:52 51.91348 -0.52406 14713 ft 365 kts 329°
2026-05-05 12:52 51.93538 -0.54541 15345 ft 368 kts 328°
2026-05-05 12:53 51.95748 -0.56703 15982 ft 372 kts 328°
2026-05-05 12:53 51.97976 -0.58883 16621 ft 376 kts 328°
2026-05-05 12:53 52.00232 -0.61090 17220 ft 380 kts 328°
2026-05-05 12:53 52.02518 -0.63327 17871 ft 384 kts 328°
2026-05-05 12:54 52.07114 -0.67832 19100 ft 390 kts 328°
2026-05-05 12:54 52.09451 -0.70128 19680 ft 394 kts 327°
2026-05-05 12:54 52.11023 -0.71676 20085 ft 396 kts 327°
2026-05-05 12:55 52.14171 -0.74775 20876 ft 401 kts 327°
2026-05-05 12:55 52.16569 -0.77137 21435 ft 405 kts 327°
2026-05-05 12:55 52.18203 -0.78751 21821 ft 407 kts 327°
2026-05-05 12:55 52.20605 -0.81129 22387 ft 411 kts 326°
2026-05-05 12:56 52.23065 -0.83567 22950 ft 414 kts 326°
2026-05-05 12:56 52.25540 -0.86022 23529 ft 418 kts 326°
2026-05-05 12:56 52.28045 -0.88505 23975 ft 422 kts 326°
2026-05-05 12:56 52.30568 -0.91013 24445 ft 426 kts 326°
2026-05-05 12:57 52.33110 -0.93546 24922 ft 429 kts 326°
2026-05-05 12:57 52.35675 -0.96106 25374 ft 432 kts 326°
2026-05-05 12:57 52.38218 -0.98647 25823 ft 435 kts 326°
2026-05-05 12:57 52.40822 -1.01250 26299 ft 438 kts 326°
2026-05-05 12:58 52.43438 -1.03867 26762 ft 441 kts 326°
2026-05-05 12:58 52.46069 -1.06504 27218 ft 445 kts 326°
2026-05-05 12:58 52.48731 -1.09175 27677 ft 448 kts 326°
2026-05-05 12:58 52.51401 -1.11858 28116 ft 451 kts 326°
2026-05-05 12:59 52.54047 -1.14522 28638 ft 451 kts 326°
2026-05-05 12:59 52.56730 -1.17224 29115 ft 454 kts 326°
2026-05-05 12:59 52.59432 -1.19944 29514 ft 457 kts 326°
2026-05-05 13:00 52.64898 -1.25472 30267 ft 463 kts 326°
2026-05-05 13:00 52.67656 -1.28268 30582 ft 465 kts 326°
2026-05-05 13:01 52.75951 -1.36697 31585 ft 472 kts 327°
2026-05-05 13:01 52.78754 -1.39561 31859 ft 475 kts 327°
2026-05-05 13:01 52.81592 -1.42465 32132 ft 477 kts 327°
2026-05-05 13:01 52.84396 -1.45338 32415 ft 480 kts 328°
2026-05-05 13:02 52.87248 -1.48263 32739 ft 481 kts 327°
2026-05-05 13:02 52.90103 -1.51195 32970 ft 484 kts 328°
2026-05-05 13:02 52.92973 -1.54148 33192 ft 487 kts 328°
2026-05-05 13:02 52.95854 -1.57114 33482 ft 488 kts 328°
2026-05-05 13:03 52.98760 -1.60111 33739 ft 490 kts 328°
2026-05-05 13:03 53.01620 -1.63064 34108 ft 488 kts 328°
2026-05-05 13:03 53.04501 -1.66047 34445 ft 487 kts 328°
2026-05-05 13:03 53.07380 -1.69029 34745 ft 486 kts 328°
2026-05-05 13:04 53.10261 -1.72019 35034 ft 485 kts 327°
2026-05-05 13:04 53.13121 -1.74999 35337 ft 484 kts 327°
2026-05-05 13:04 53.15971 -1.77975 35628 ft 483 kts 327°
2026-05-05 13:04 53.18800 -1.80979 35885 ft 482 kts 324°
2026-05-05 13:05 53.21442 -1.84414 36129 ft 481 kts 316°
2026-05-05 13:05 53.23767 -1.88416 36405 ft 478 kts 308°
2026-05-05 13:05 53.25692 -1.92912 36679 ft 475 kts 299°
2026-05-05 13:05 53.27290 -1.97684 36894 ft 475 kts 297°
2026-05-05 13:06 53.28806 -2.02584 37084 ft 475 kts 295°
2026-05-05 13:06 53.30274 -2.07529 37323 ft 474 kts 295°
2026-05-05 13:06 53.31718 -2.12484 37558 ft 473 kts 295°
2026-05-05 13:06 53.33156 -2.17433 37761 ft 473 kts 295°
2026-05-05 13:07 53.34601 -2.22397 37936 ft 473 kts 295°
2026-05-05 13:07 53.35871 -2.27492 38026 ft 474 kts 288°
2026-05-05 13:07 53.37976 -2.37912 38021 ft 475 kts 287°
2026-05-05 13:08 53.39984 -2.48482 38022 ft 475 kts 287°
2026-05-05 13:08 53.41967 -2.59069 38025 ft 475 kts 287°
2026-05-05 13:09 53.43931 -2.69556 38031 ft 472 kts 287°
2026-05-05 13:09 53.45898 -2.80090 38034 ft 473 kts 286°
2026-05-05 13:10 53.47857 -2.90626 38046 ft 472 kts 286°
2026-05-05 13:10 53.49806 -3.01142 38046 ft 470 kts 286°
2026-05-05 13:11 53.51737 -3.11666 38046 ft 471 kts 287°
2026-05-05 13:11 53.53656 -3.22179 38049 ft 473 kts 286°
2026-05-05 13:12 53.55581 -3.32775 38047 ft 473 kts 286°
2026-05-05 13:12 53.57483 -3.43303 38046 ft 473 kts 286°
2026-05-05 13:13 53.59391 -3.53900 38049 ft 473 kts 286°
2026-05-05 13:13 53.61200 -3.64549 38049 ft 473 kts 281°
2026-05-05 13:14 53.62005 -3.75535 38053 ft 473 kts 275°
2026-05-05 13:14 53.62490 -3.86604 38053 ft 473 kts 274°
2026-05-05 13:15 53.62915 -3.97678 38059 ft 473 kts 274°
2026-05-05 13:15 53.63336 -4.08674 38059 ft 473 kts 274°
2026-05-05 13:16 53.63762 -4.19750 38062 ft 473 kts 274°
2026-05-05 13:16 53.64175 -4.30802 38061 ft 472 kts 273°
2026-05-05 13:17 53.64584 -4.41858 38064 ft 472 kts 273°
2026-05-05 13:17 53.64977 -4.52852 38065 ft 472 kts 273°
2026-05-05 13:18 53.65359 -4.63911 38071 ft 472 kts 273°
2026-05-05 13:18 53.65732 -4.74967 38069 ft 471 kts 273°
2026-05-05 13:19 53.66095 -4.85953 38073 ft 471 kts 273°
2026-05-05 13:19 53.66458 -4.97008 38072 ft 471 kts 273°
2026-05-05 13:20 53.66806 -5.08088 38075 ft 472 kts 273°
2026-05-05 13:20 53.67142 -5.19080 38075 ft 471 kts 272°
2026-05-05 13:21 53.67462 -5.30117 38078 ft 471 kts 272°
2026-05-05 13:21 53.67768 -5.41157 38078 ft 471 kts 272°
2026-05-05 13:22 53.68065 -5.52197 38077 ft 471 kts 272°
2026-05-05 13:22 53.68055 -5.63270 38078 ft 471 kts 268°
2026-05-05 13:23 53.67861 -5.74270 38081 ft 471 kts 268°
2026-05-05 13:23 53.67693 -5.85343 38077 ft 471 kts 269°
2026-05-05 13:24 53.67560 -5.96343 38078 ft 471 kts 269°
2026-05-05 13:24 53.67432 -6.07395 38078 ft 471 kts 269°
2026-05-05 13:25 53.67293 -6.18458 38078 ft 471 kts 269°
2026-05-05 13:25 53.67143 -6.29480 38075 ft 471 kts 269°
2026-05-05 13:26 53.66981 -6.40527 38072 ft 471 kts 269°
2026-05-05 13:26 53.66809 -6.51568 38072 ft 471 kts 268°
2026-05-05 13:27 53.66627 -6.62633 38076 ft 471 kts 268°
2026-05-05 13:27 53.66435 -6.73680 38076 ft 471 kts 268°
2026-05-05 13:28 53.66232 -6.84727 38075 ft 471 kts 268°
2026-05-05 13:28 53.66021 -6.95728 38075 ft 472 kts 268°
2026-05-05 13:29 53.65798 -7.06794 38074 ft 472 kts 268°
2026-05-05 13:29 53.65564 -7.17859 38077 ft 472 kts 268°
2026-05-05 13:30 53.65322 -7.28835 38074 ft 472 kts 268°
2026-05-05 13:30 53.65068 -7.39908 38077 ft 472 kts 268°
2026-05-05 13:31 53.64804 -7.50985 38078 ft 472 kts 268°
2026-05-05 13:31 53.64530 -7.62063 38078 ft 472 kts 268°
2026-05-05 13:32 53.64171 -7.73132 38081 ft 472 kts 265°
2026-05-05 13:32 53.63509 -7.84082 38078 ft 472 kts 264°
2026-05-05 13:33 53.62794 -7.95114 38083 ft 473 kts 264°
2026-05-05 13:33 53.62114 -8.06142 38083 ft 473 kts 264°
2026-05-05 13:34 53.61453 -8.17109 38086 ft 473 kts 264°
2026-05-05 13:34 53.60783 -8.28176 38086 ft 473 kts 264°
2026-05-05 13:35 53.60108 -8.39128 38090 ft 473 kts 264°
2026-05-05 13:35 53.59417 -8.50129 38094 ft 473 kts 264°
2026-05-05 13:36 53.58716 -8.61147 38097 ft 473 kts 264°
2026-05-05 13:36 53.58007 -8.72103 38097 ft 473 kts 264°
2026-05-05 13:37 53.57286 -8.83101 38100 ft 473 kts 264°
2026-05-05 13:37 53.56554 -8.94111 38106 ft 472 kts 264°
2026-05-05 13:38 53.55813 -9.05095 38111 ft 472 kts 264°
2026-05-05 13:38 53.55062 -9.16070 38114 ft 472 kts 264°
2026-05-05 13:39 53.54302 -9.27030 38111 ft 472 kts 264°
2026-05-05 13:39 53.53536 -9.37936 38118 ft 472 kts 264°
2026-05-05 13:40 53.52754 -9.48920 38115 ft 473 kts 263°
2026-05-05 13:40 53.52096 -9.58057 38122 ft 473 kts 263°
2026-05-05 13:41 53.51163 -9.70827 38118 ft 473 kts 263°
2026-05-05 13:41 53.50353 -9.81772 38129 ft 473 kts 263°
2026-05-05 13:42 53.49664 -9.90955 38127 ft 473 kts 263°
2026-05-05 13:42 53.48839 -10.01853 38132 ft 473 kts 263°
2026-05-05 13:43 53.48000 -10.12793 38133 ft 472 kts 263°
2026-05-05 13:43 53.47149 -10.23748 38140 ft 472 kts 263°
2026-05-05 13:44 53.46289 -10.34685 38140 ft 473 kts 263°
2026-05-05 13:44 53.45422 -10.45589 38143 ft 473 kts 263°
2026-05-05 13:45 53.44542 -10.56520 38143 ft 473 kts 263°
2026-05-05 13:45 53.43651 -10.67455 38143 ft 473 kts 263°
2026-05-05 13:46 53.42750 -10.78397 38151 ft 473 kts 263°
2026-05-05 13:46 53.41845 -10.89252 38151 ft 473 kts 263°
2026-05-05 13:47 53.40926 -11.00167 38156 ft 473 kts 263°
2026-05-05 13:47 53.39997 -11.11065 38157 ft 473 kts 262°
2026-05-05 13:48 53.39056 -11.21986 38157 ft 473 kts 262°
2026-05-05 13:48 53.38106 -11.32887 38157 ft 473 kts 262°
2026-05-05 13:49 53.37146 -11.43790 38162 ft 473 kts 262°
2026-05-05 13:49 53.36175 -11.54693 38162 ft 473 kts 262°
2026-05-05 13:50 53.35200 -11.65537 38167 ft 473 kts 262°
2026-05-05 13:50 53.34206 -11.76461 38167 ft 473 kts 262°
2026-05-05 13:51 53.33212 -11.87285 38167 ft 473 kts 262°
2026-05-05 13:51 53.32200 -11.98181 38167 ft 473 kts 262°
2026-05-05 13:52 53.31180 -12.09058 38170 ft 473 kts 262°
2026-05-05 13:52 53.30158 -12.19856 38176 ft 473 kts 262°
2026-05-05 13:53 53.29117 -12.30736 38176 ft 473 kts 262°
2026-05-05 13:53 53.28067 -12.41594 38171 ft 473 kts 262°
2026-05-05 13:54 53.27015 -12.52380 38179 ft 473 kts 262°
2026-05-05 13:54 53.25947 -12.63217 38184 ft 473 kts 262°
2026-05-05 13:55 53.24867 -12.74069 38184 ft 473 kts 261°
2026-05-05 13:55 53.23778 -12.84913 38184 ft 473 kts 261°
2026-05-05 13:56 53.22685 -12.95683 38184 ft 473 kts 261°
2026-05-05 13:56 53.21576 -13.06521 38189 ft 473 kts 261°
2026-05-05 13:57 53.20458 -13.17344 38189 ft 473 kts 261°
2026-05-05 13:57 53.19338 -13.28077 38192 ft 473 kts 261°
2026-05-05 13:58 53.18202 -13.38876 38181 ft 473 kts 261°
2026-05-05 13:58 53.17053 -13.49688 38192 ft 472 kts 261°
2026-05-05 13:59 53.15326 -13.65769 38195 ft 472 kts 261°
2026-05-05 14:00 53.13570 -13.81904 38200 ft 472 kts 261°
2026-05-05 14:00 53.12387 -13.92659 38199 ft 472 kts 261°
2026-05-05 14:01 53.11194 -14.03407 38197 ft 471 kts 261°
2026-05-05 14:01 53.09996 -14.14105 38197 ft 471 kts 261°
2026-05-05 14:02 53.08782 -14.24856 38203 ft 472 kts 261°
2026-05-05 14:02 53.07566 -14.35527 38203 ft 472 kts 261°
2026-05-05 14:03 53.06333 -14.46267 38205 ft 471 kts 261°
2026-05-05 14:03 53.05092 -14.56979 38205 ft 471 kts 260°
2026-05-05 14:04 53.03843 -14.67676 38208 ft 471 kts 260°
2026-05-05 14:04 53.02591 -14.78306 38211 ft 471 kts 260°
2026-05-05 14:05 53.01322 -14.89008 38211 ft 471 kts 260°
2026-05-05 14:05 53.00867 -14.99812 38355 ft 469 kts 276°
2026-05-05 14:06 53.01369 -15.05148 38546 ft 468 kts 284°
2026-05-05 14:06 53.02310 -15.10320 38719 ft 467 kts 289°
2026-05-05 14:06 53.03391 -15.15429 38877 ft 468 kts 290°
2026-05-05 14:06 53.04512 -15.20433 38999 ft 468 kts 291°
2026-05-05 14:07 53.05671 -15.25499 39127 ft 468 kts 291°
2026-05-05 14:07 53.06832 -15.30577 39210 ft 470 kts 291°
2026-05-05 14:07 53.09136 -15.40782 39217 ft 470 kts 290°
2026-05-05 14:08 53.11387 -15.50930 39217 ft 470 kts 290°
2026-05-05 14:08 53.13639 -15.61169 39219 ft 470 kts 290°
2026-05-05 14:09 53.15875 -15.71395 39216 ft 470 kts 290°
2026-05-05 14:09 53.18108 -15.81646 39216 ft 470 kts 290°
2026-05-05 14:10 53.20317 -15.91835 39217 ft 470 kts 290°
2026-05-05 14:10 53.22533 -16.02110 39219 ft 471 kts 290°
2026-05-05 14:11 53.24743 -16.12411 39222 ft 471 kts 290°
2026-05-05 14:11 53.26945 -16.22724 39225 ft 471 kts 290°
2026-05-05 14:12 53.29136 -16.33036 39222 ft 471 kts 290°
2026-05-05 14:12 53.31310 -16.43323 39222 ft 471 kts 290°
2026-05-05 14:13 53.33476 -16.53622 39222 ft 471 kts 290°
2026-05-05 14:13 53.35638 -16.63958 39222 ft 471 kts 289°
2026-05-05 14:14 53.37796 -16.74327 39227 ft 471 kts 289°
2026-05-05 14:14 53.39945 -16.84706 39227 ft 470 kts 289°
2026-05-05 14:15 53.42071 -16.95024 39227 ft 470 kts 289°
2026-05-05 14:15 53.44196 -17.05397 39230 ft 470 kts 289°
2026-05-05 14:16 53.46316 -17.15795 39227 ft 470 kts 289°
2026-05-05 14:16 53.48425 -17.26199 39230 ft 470 kts 289°
2026-05-05 14:17 53.50526 -17.36616 39230 ft 470 kts 289°
2026-05-05 14:17 53.52606 -17.46983 39233 ft 470 kts 289°
2026-05-05 14:18 53.54691 -17.57428 39233 ft 470 kts 289°
2026-05-05 14:18 53.56754 -17.67823 39233 ft 470 kts 289°
2026-05-05 14:19 53.58821 -17.78291 39236 ft 470 kts 289°
2026-05-05 14:19 53.60877 -17.88760 39236 ft 470 kts 289°
2026-05-05 14:20 53.62912 -17.99181 39236 ft 470 kts 289°
2026-05-05 14:20 53.64947 -18.09656 39238 ft 470 kts 289°
2026-05-05 14:21 53.66975 -18.20152 39238 ft 470 kts 289°
2026-05-05 14:21 53.68991 -18.30647 39238 ft 470 kts 289°
2026-05-05 14:22 53.71001 -18.41165 39238 ft 470 kts 289°
2026-05-05 14:22 53.72989 -18.51625 39235 ft 470 kts 288°
2026-05-05 14:23 53.74982 -18.62172 39235 ft 470 kts 288°
2026-05-05 14:23 53.76949 -18.72641 39241 ft 470 kts 288°
2026-05-05 14:24 53.78919 -18.83184 39243 ft 470 kts 288°
2026-05-05 14:24 53.80882 -18.93748 39243 ft 470 kts 288°
2026-05-05 14:25 53.82823 -19.04254 39245 ft 470 kts 288°
2026-05-05 14:25 53.84768 -19.14838 39245 ft 470 kts 288°
2026-05-05 14:26 53.86700 -19.25418 39245 ft 470 kts 288°
2026-05-05 14:26 53.88613 -19.35949 39246 ft 470 kts 288°
2026-05-05 14:27 53.90530 -19.46562 39246 ft 470 kts 288°
2026-05-05 14:27 53.92436 -19.57178 39248 ft 470 kts 288°
2026-05-05 14:28 53.94336 -19.67823 39243 ft 470 kts 288°
2026-05-05 14:28 53.96212 -19.78395 39246 ft 470 kts 288°
2026-05-05 14:29 53.98086 -19.89022 39251 ft 470 kts 288°
2026-05-05 14:29 53.99575 -19.97931 39252 ft 471 kts 283°
2026-05-05 14:30 54.00396 -20.09031 39253 ft 473 kts 277°
2026-05-05 14:30 54.00876 -20.20200 39257 ft 473 kts 276°
2026-05-05 14:31 54.01290 -20.31333 39255 ft 473 kts 275°
2026-05-05 14:31 54.01705 -20.42526 39239 ft 474 kts 276°
2026-05-05 14:32 54.02121 -20.53715 39257 ft 474 kts 276°
2026-05-05 14:32 54.02530 -20.64859 39254 ft 475 kts 276°
2026-05-05 14:33 54.02932 -20.76076 39254 ft 475 kts 275°
2026-05-05 14:33 54.03322 -20.87295 39254 ft 475 kts 275°
2026-05-05 14:34 54.03702 -20.98539 39255 ft 475 kts 275°
2026-05-05 14:34 54.04070 -21.09719 39257 ft 475 kts 275°
2026-05-05 14:35 54.04429 -21.20965 39257 ft 475 kts 275°
2026-05-05 14:35 54.04778 -21.32212 39257 ft 476 kts 275°
2026-05-05 14:36 54.05115 -21.43404 39260 ft 475 kts 275°
2026-05-05 14:36 54.05442 -21.54642 39260 ft 475 kts 275°
2026-05-05 14:37 54.05760 -21.65904 39260 ft 476 kts 275°
2026-05-05 14:37 54.06067 -21.77157 39263 ft 475 kts 275°
2026-05-05 14:38 54.06361 -21.88338 39265 ft 476 kts 275°
2026-05-05 14:38 54.06648 -21.99602 39265 ft 476 kts 275°
2026-05-05 14:39 54.06923 -22.10866 39263 ft 476 kts 275°
2026-05-05 14:39 54.07188 -22.22122 39262 ft 476 kts 275°
2026-05-05 14:40 54.07441 -22.33315 39268 ft 476 kts 275°
2026-05-05 14:40 54.07685 -22.44587 39268 ft 476 kts 274°
2026-05-05 14:41 54.07919 -22.55864 39271 ft 476 kts 274°
2026-05-05 14:41 54.08142 -22.67134 39270 ft 476 kts 274°
2026-05-05 14:42 54.08354 -22.78414 39267 ft 476 kts 274°
2026-05-05 14:42 54.08555 -22.89618 39269 ft 476 kts 274°
2026-05-05 14:43 54.08746 -23.00885 39275 ft 476 kts 274°
2026-05-05 14:43 54.08927 -23.12152 39275 ft 476 kts 274°
2026-05-05 14:44 54.09097 -23.23422 39277 ft 476 kts 274°
2026-05-05 14:44 54.09256 -23.34638 39263 ft 476 kts 274°
2026-05-05 14:45 54.09406 -23.45937 39278 ft 475 kts 274°
2026-05-05 14:45 54.09544 -23.57152 39278 ft 475 kts 274°
2026-05-05 14:46 54.09672 -23.68422 39278 ft 476 kts 274°
2026-05-05 14:46 54.09790 -23.79731 39278 ft 476 kts 274°
2026-05-05 14:47 54.09897 -23.90928 39264 ft 475 kts 274°
2026-05-05 14:47 54.09993 -24.02221 39278 ft 475 kts 274°
2026-05-05 14:48 54.10079 -24.13483 39289 ft 475 kts 274°
2026-05-05 14:48 54.10155 -24.24755 39280 ft 475 kts 274°
2026-05-05 14:49 54.10220 -24.36006 39278 ft 475 kts 274°
2026-05-05 14:49 54.10274 -24.47185 39287 ft 475 kts 273°
2026-05-05 14:50 54.10318 -24.58475 39284 ft 474 kts 273°
2026-05-05 14:50 54.10351 -24.69652 39285 ft 474 kts 273°
2026-05-05 14:51 54.10374 -24.80923 39291 ft 474 kts 273°
2026-05-05 14:51 54.10387 -24.92158 39288 ft 474 kts 273°
2026-05-05 14:52 54.10389 -25.03416 39287 ft 474 kts 273°
2026-05-05 14:52 54.10380 -25.14588 39288 ft 474 kts 273°
2026-05-05 14:53 54.10361 -25.25812 39291 ft 473 kts 273°
2026-05-05 14:53 54.10332 -25.37022 39296 ft 473 kts 273°
2026-05-05 14:54 54.10293 -25.48242 39293 ft 473 kts 273°
2026-05-05 14:54 54.10243 -25.59387 39293 ft 473 kts 272°
2026-05-05 14:55 54.10182 -25.70627 39288 ft 473 kts 272°
2026-05-05 14:55 54.10111 -25.81794 39292 ft 472 kts 272°
2026-05-05 14:56 54.10030 -25.93027 39293 ft 472 kts 272°
2026-05-05 14:56 54.09938 -26.04219 39297 ft 472 kts 272°
2026-05-05 14:57 54.09837 -26.15375 39298 ft 472 kts 272°
2026-05-05 14:57 54.09725 -26.26564 39285 ft 472 kts 272°
2026-05-05 14:58 54.09602 -26.37682 39295 ft 472 kts 272°
2026-05-05 14:58 54.09470 -26.48864 39296 ft 472 kts 272°
2026-05-05 14:59 54.09327 -26.60049 39296 ft 472 kts 272°
2026-05-05 14:59 54.09173 -26.71231 39305 ft 472 kts 272°
2026-05-05 15:00 54.09037 -26.80545 39309 ft 473 kts 272°
2026-05-05 15:00 54.08835 -26.93590 39308 ft 473 kts 272°
2026-05-05 15:01 54.08649 -27.04804 39305 ft 473 kts 272°
2026-05-05 15:01 54.08453 -27.16040 39307 ft 473 kts 272°
2026-05-05 15:02 54.08248 -27.27220 39304 ft 473 kts 272°
2026-05-05 15:02 54.08030 -27.38454 39304 ft 473 kts 271°
2026-05-05 15:03 54.07804 -27.49612 39307 ft 474 kts 271°
2026-05-05 15:03 54.07566 -27.60849 39307 ft 474 kts 271°
2026-05-05 15:04 54.07318 -27.72075 39304 ft 474 kts 271°
2026-05-05 15:04 54.07060 -27.83282 39304 ft 474 kts 271°
2026-05-05 15:05 54.06654 -28.00047 39306 ft 474 kts 271°
2026-05-05 15:06 54.06369 -28.11282 39307 ft 475 kts 271°
2026-05-05 15:06 54.06073 -28.22533 39309 ft 475 kts 271°
2026-05-05 15:07 54.05769 -28.33693 39313 ft 475 kts 271°
2026-05-05 15:07 54.05450 -28.44995 39311 ft 475 kts 271°
2026-05-05 15:08 54.05125 -28.56155 39290 ft 475 kts 271°
2026-05-05 15:08 54.04788 -28.67390 39313 ft 474 kts 271°
2026-05-05 15:09 54.04440 -28.78612 39312 ft 474 kts 270°
2026-05-05 15:09 54.04084 -28.89762 39311 ft 474 kts 270°
2026-05-05 15:10 54.03716 -29.00969 39313 ft 474 kts 270°
2026-05-05 15:10 54.03337 -29.12173 39311 ft 474 kts 270°
2026-05-05 15:11 54.02948 -29.23399 39317 ft 474 kts 270°
2026-05-05 15:11 54.02551 -29.34513 39310 ft 473 kts 270°
2026-05-05 15:12 54.02142 -29.45699 39308 ft 473 kts 270°
2026-05-05 15:12 54.01724 -29.56836 39304 ft 473 kts 270°
2026-05-05 15:13 54.01294 -29.68028 39308 ft 473 kts 269°
2026-05-05 15:13 54.00857 -29.79136 39302 ft 473 kts 269°
2026-05-05 15:14 54.00406 -29.90307 39303 ft 472 kts 269°
2026-05-05 15:14 54.00144 -30.01459 39303 ft 470 kts 276°
2026-05-05 15:15 54.00493 -30.12472 39300 ft 469 kts 276°
2026-05-05 15:15 54.00940 -30.23539 39301 ft 469 kts 277°
2026-05-05 15:16 54.01392 -30.34616 39288 ft 469 kts 276°
2026-05-05 15:16 54.01751 -30.43820 39297 ft 470 kts 276°
2026-05-05 15:17 54.02236 -30.56741 39297 ft 470 kts 275°
2026-05-05 15:17 54.02574 -30.66044 39297 ft 470 kts 275°
2026-05-05 15:18 54.02967 -30.77089 39290 ft 470 kts 275°
2026-05-05 15:18 54.03352 -30.88188 39291 ft 470 kts 275°
2026-05-05 15:19 54.03727 -30.99306 39287 ft 470 kts 274°
2026-05-05 15:19 54.04093 -31.10441 39286 ft 471 kts 274°
2026-05-05 15:20 54.04448 -31.21574 39289 ft 471 kts 274°
2026-05-05 15:20 54.04792 -31.32652 39285 ft 471 kts 274°
2026-05-05 15:21 54.05127 -31.43812 39285 ft 472 kts 274°
2026-05-05 15:21 54.05452 -31.54973 39280 ft 472 kts 274°
2026-05-05 15:22 54.05767 -31.66130 39281 ft 471 kts 273°
2026-05-05 15:22 54.06071 -31.77278 39276 ft 471 kts 273°
2026-05-05 15:23 54.06363 -31.88386 39272 ft 471 kts 273°
2026-05-05 15:23 54.06646 -31.99549 39269 ft 471 kts 273°
2026-05-05 15:24 54.06918 -32.10640 39271 ft 471 kts 273°
2026-05-05 15:24 54.07180 -32.21785 39271 ft 470 kts 272°
2026-05-05 15:25 54.07434 -32.32940 39266 ft 472 kts 271°
2026-05-05 15:25 54.07676 -32.44094 39267 ft 471 kts 271°
2026-05-05 15:26 54.07907 -32.55219 39252 ft 473 kts 271°
2026-05-05 15:26 54.08129 -32.66382 39253 ft 471 kts 271°
2026-05-05 15:27 54.08339 -32.77556 39254 ft 472 kts 271°
2026-05-05 15:27 54.08541 -32.88737 39251 ft 470 kts 271°
2026-05-05 15:28 54.08730 -32.99849 39250 ft 473 kts 270°
2026-05-05 15:28 54.08912 -33.11078 39242 ft 473 kts 270°
2026-05-05 15:29 54.09081 -33.22292 39242 ft 474 kts 270°
2026-05-05 15:29 54.09242 -33.33484 39233 ft 473 kts 270°
2026-05-05 15:30 54.09391 -33.44737 39231 ft 474 kts 270°
2026-05-05 15:30 54.09530 -33.55896 39238 ft 474 kts 269°
2026-05-05 15:31 54.09659 -33.67152 39229 ft 476 kts 269°
2026-05-05 15:31 54.09778 -33.78456 39227 ft 477 kts 269°
2026-05-05 15:32 54.09886 -33.89763 39226 ft 476 kts 269°
2026-05-05 15:32 54.09985 -34.01057 39234 ft 477 kts 269°
2026-05-05 15:33 54.10072 -34.12368 39219 ft 478 kts 269°
2026-05-05 15:33 54.10149 -34.23646 39219 ft 478 kts 268°
2026-05-05 15:34 54.10215 -34.34993 39211 ft 478 kts 268°
2026-05-05 15:34 54.10271 -34.46337 39206 ft 478 kts 268°
2026-05-05 15:35 54.10316 -34.57681 39196 ft 478 kts 268°
2026-05-05 15:35 54.10350 -34.68955 39198 ft 478 kts 268°
2026-05-05 15:36 54.10374 -34.80317 39195 ft 478 kts 268°
2026-05-05 15:36 54.10387 -34.91642 39184 ft 477 kts 267°
2026-05-05 15:37 54.10390 -35.02961 39185 ft 478 kts 267°
2026-05-05 15:37 54.10381 -35.14241 39174 ft 478 kts 267°
2026-05-05 15:38 54.10363 -35.25570 39171 ft 478 kts 267°
2026-05-05 15:38 54.10333 -35.36925 39166 ft 478 kts 267°
2026-05-05 15:39 54.10293 -35.48206 39176 ft 478 kts 267°
2026-05-05 15:39 54.10243 -35.59567 39163 ft 477 kts 266°
2026-05-05 15:40 54.10182 -35.70875 39153 ft 477 kts 266°
2026-05-05 15:40 54.10110 -35.82182 39154 ft 477 kts 266°
2026-05-05 15:41 54.10028 -35.93411 39145 ft 478 kts 266°
2026-05-05 15:41 54.09935 -36.04739 39143 ft 478 kts 266°
2026-05-05 15:42 54.09831 -36.16090 39141 ft 478 kts 266°
2026-05-05 15:42 54.09716 -36.27436 39137 ft 479 kts 266°
2026-05-05 15:43 54.09592 -36.38786 39126 ft 479 kts 266°
2026-05-05 15:43 54.09456 -36.50126 39127 ft 479 kts 266°
2026-05-05 15:44 54.09310 -36.61393 39123 ft 479 kts 266°
2026-05-05 15:44 54.09152 -36.72752 39122 ft 479 kts 265°
2026-05-05 15:45 54.08984 -36.84115 39124 ft 480 kts 265°
2026-05-05 15:45 54.08805 -36.95458 39115 ft 482 kts 265°
2026-05-05 15:46 54.08615 -37.06850 39115 ft 482 kts 265°
2026-05-05 15:46 54.08414 -37.18299 39110 ft 482 kts 265°
2026-05-05 15:47 54.08203 -37.29638 39106 ft 482 kts 265°
2026-05-05 15:47 54.07980 -37.41047 39120 ft 482 kts 265°
2026-05-05 15:48 54.07746 -37.52470 39102 ft 481 kts 265°
2026-05-05 15:48 54.07504 -37.63801 39105 ft 481 kts 265°
2026-05-05 15:49 54.07249 -37.75190 39096 ft 482 kts 265°
2026-05-05 15:49 54.06982 -37.86618 39094 ft 483 kts 265°
2026-05-05 15:50 54.06704 -37.98077 39104 ft 483 kts 265°
2026-05-05 15:50 54.06417 -38.09466 39104 ft 483 kts 264°
2026-05-05 15:51 54.06119 -38.20868 39104 ft 481 kts 264°
2026-05-05 15:51 54.05810 -38.32248 39099 ft 481 kts 264°
2026-05-05 15:52 54.05491 -38.43623 39101 ft 481 kts 264°
2026-05-05 15:52 54.05161 -38.54998 39103 ft 481 kts 264°
2026-05-05 15:53 54.04822 -38.66292 39101 ft 481 kts 264°
2026-05-05 15:53 54.04469 -38.77699 39104 ft 482 kts 264°
2026-05-05 15:54 54.04107 -38.89090 39099 ft 482 kts 264°
2026-05-05 15:54 54.03733 -39.00480 39099 ft 482 kts 263°
2026-05-05 15:55 54.03351 -39.11807 39100 ft 482 kts 263°
2026-05-05 15:55 54.02955 -39.23209 39093 ft 482 kts 263°
2026-05-05 15:56 54.02549 -39.34604 39106 ft 482 kts 263°
2026-05-05 15:56 54.02136 -39.45903 39094 ft 482 kts 263°
2026-05-05 15:57 54.01708 -39.57302 39091 ft 482 kts 263°
2026-05-05 15:57 54.01268 -39.68719 39100 ft 483 kts 263°
2026-05-05 15:58 54.00818 -39.80114 39097 ft 483 kts 263°
2026-05-05 15:58 54.00360 -39.91452 39093 ft 483 kts 263°
2026-05-05 15:59 53.99885 -40.02864 39088 ft 483 kts 262°
2026-05-05 15:59 53.99259 -40.14236 39086 ft 483 kts 261°
2026-05-05 16:00 53.98557 -40.25591 39088 ft 483 kts 261°
2026-05-05 16:00 53.97866 -40.36869 39086 ft 483 kts 261°
2026-05-05 16:01 53.97176 -40.48265 39093 ft 483 kts 261°
2026-05-05 16:01 53.96486 -40.59563 39083 ft 484 kts 261°
2026-05-05 16:02 53.95778 -40.70980 39078 ft 485 kts 261°
2026-05-05 16:02 53.95065 -40.82312 39072 ft 485 kts 261°
2026-05-05 16:03 53.94336 -40.93692 39074 ft 485 kts 260°
2026-05-05 16:03 53.93596 -41.05081 39066 ft 484 kts 260°
2026-05-05 16:04 53.92851 -41.16376 39066 ft 484 kts 260°
2026-05-05 16:04 53.92090 -41.27743 39063 ft 484 kts 260°
2026-05-05 16:05 53.91320 -41.39101 39063 ft 483 kts 260°
2026-05-05 16:05 53.90672 -41.48519 39058 ft 484 kts 260°
2026-05-05 16:06 53.89750 -41.61730 39056 ft 485 kts 260°
2026-05-05 16:06 53.89081 -41.71195 39053 ft 485 kts 260°
2026-05-05 16:07 53.88265 -41.82597 39048 ft 485 kts 259°
2026-05-05 16:07 53.87447 -41.93870 39048 ft 485 kts 259°
2026-05-05 16:08 53.86611 -42.05236 39045 ft 484 kts 259°
2026-05-05 16:08 53.85771 -42.16510 39045 ft 484 kts 259°
2026-05-05 16:09 53.84916 -42.27838 39031 ft 484 kts 259°
2026-05-05 16:09 53.84050 -42.39156 39031 ft 484 kts 259°
2026-05-05 16:10 53.83179 -42.50410 39039 ft 484 kts 259°
2026-05-05 16:10 53.82294 -42.61699 39025 ft 484 kts 259°
2026-05-05 16:11 53.81398 -42.72991 39023 ft 484 kts 259°
2026-05-05 16:12 53.79572 -42.95573 39012 ft 483 kts 259°
2026-05-05 16:13 53.77247 -43.23593 39009 ft 482 kts 258°
2026-05-05 16:13 53.76295 -43.34819 39003 ft 483 kts 258°
2026-05-05 16:14 53.74350 -43.57383 38995 ft 485 kts 258°
2026-05-05 16:15 53.72373 -43.79835 38980 ft 483 kts 258°
2026-05-05 16:16 53.70355 -44.02236 38978 ft 482 kts 258°
2026-05-05 16:17 53.68817 -44.18985 38976 ft 482 kts 258°
2026-05-05 16:18 53.67257 -44.35708 38972 ft 483 kts 258°
2026-05-05 16:19 53.65666 -44.52505 38946 ft 483 kts 258°
2026-05-05 16:19 53.64052 -44.69287 38940 ft 483 kts 257°
2026-05-05 16:20 53.61866 -44.91617 38940 ft 483 kts 257°
2026-05-05 16:22 53.59086 -45.19389 38918 ft 482 kts 257°
2026-05-05 16:23 53.56803 -45.41692 38904 ft 483 kts 257°
2026-05-05 16:23 53.55066 -45.58389 38898 ft 483 kts 257°
2026-05-05 16:24 53.53902 -45.69455 38888 ft 482 kts 257°
2026-05-05 16:25 53.52127 -45.86116 38885 ft 482 kts 257°
2026-05-05 16:25 53.50330 -46.02755 38868 ft 482 kts 257°
2026-05-05 16:26 53.47900 -46.24907 38867 ft 481 kts 257°
2026-05-05 16:27 53.46677 -46.35905 38854 ft 481 kts 257°
2026-05-05 16:27 53.45437 -46.46963 38853 ft 481 kts 256°
2026-05-05 16:28 53.44192 -46.57960 38854 ft 481 kts 257°
2026-05-05 16:28 53.42929 -46.69021 38840 ft 481 kts 256°
2026-05-05 16:29 53.41661 -46.80038 38840 ft 481 kts 256°
2026-05-05 16:29 53.40390 -46.90984 38834 ft 481 kts 256°
2026-05-05 16:30 53.39101 -47.01997 38830 ft 481 kts 256°
2026-05-05 16:30 53.37801 -47.12999 38819 ft 482 kts 256°
2026-05-05 16:31 53.36497 -47.23951 38815 ft 482 kts 256°
2026-05-05 16:31 53.35173 -47.34977 38815 ft 482 kts 256°
2026-05-05 16:32 53.33843 -47.45959 38804 ft 481 kts 256°
2026-05-05 16:32 53.32504 -47.56919 38799 ft 480 kts 256°
2026-05-05 16:33 53.31166 -47.67792 38801 ft 480 kts 256°
2026-05-05 16:33 53.29805 -47.78760 38785 ft 480 kts 256°
2026-05-05 16:34 53.28440 -47.89682 38788 ft 480 kts 256°
2026-05-05 16:34 53.27073 -48.00532 38781 ft 480 kts 256°
2026-05-05 16:35 53.25686 -48.11454 38767 ft 479 kts 255°
2026-05-05 16:35 53.24291 -48.22356 38770 ft 480 kts 255°
2026-05-05 16:36 53.22886 -48.33247 38767 ft 480 kts 255°
2026-05-05 16:36 53.21471 -48.44128 38764 ft 479 kts 256°
2026-05-05 16:37 53.20057 -48.54912 38751 ft 479 kts 256°
2026-05-05 16:37 53.18624 -48.65760 38753 ft 478 kts 255°
2026-05-05 16:38 53.17184 -48.76584 38747 ft 478 kts 255°
2026-05-05 16:38 53.15737 -48.87402 38740 ft 477 kts 256°
2026-05-05 16:39 53.14283 -48.98164 38736 ft 479 kts 255°
2026-05-05 16:39 53.12804 -49.09034 38739 ft 480 kts 255°
2026-05-05 16:40 53.11331 -49.19793 38723 ft 477 kts 255°
2026-05-05 16:40 53.09844 -49.30579 38719 ft 476 kts 255°
2026-05-05 16:41 53.08348 -49.41343 38721 ft 477 kts 255°
2026-05-05 16:41 53.06852 -49.52023 38705 ft 477 kts 255°
2026-05-05 16:42 53.05338 -49.62755 38703 ft 477 kts 255°
2026-05-05 16:42 53.03813 -49.73500 38703 ft 476 kts 255°
2026-05-05 16:43 53.02278 -49.84233 38709 ft 477 kts 254°
2026-05-05 16:43 53.00743 -49.94895 38687 ft 478 kts 255°
2026-05-05 16:44 52.98712 -50.05340 38686 ft 476 kts 248°
2026-05-05 16:44 52.96303 -50.15573 38686 ft 474 kts 246°
2026-05-05 16:45 52.93835 -50.25738 38690 ft 474 kts 247°
2026-05-05 16:45 52.91367 -50.35868 38675 ft 473 kts 246°
2026-05-05 16:46 52.88917 -50.45920 38675 ft 472 kts 246°
2026-05-05 16:46 52.86452 -50.56006 38673 ft 472 kts 246°
2026-05-05 16:47 52.83976 -50.66090 38676 ft 473 kts 246°
2026-05-05 16:47 52.81492 -50.76158 38668 ft 473 kts 247°
2026-05-05 16:48 52.79008 -50.86177 38668 ft 474 kts 247°
2026-05-05 16:48 52.76501 -50.96244 38655 ft 474 kts 247°
2026-05-05 16:49 52.73979 -51.06327 38654 ft 474 kts 247°
2026-05-05 16:49 52.71451 -51.16388 38665 ft 473 kts 246°
2026-05-05 16:50 52.68933 -51.26364 38648 ft 473 kts 247°
2026-05-05 16:50 52.66407 -51.36330 38649 ft 473 kts 247°
2026-05-05 16:51 52.63859 -51.46334 38650 ft 473 kts 246°
2026-05-05 16:51 52.61304 -51.56322 38640 ft 473 kts 246°
2026-05-05 16:52 52.59177 -51.64604 38647 ft 473 kts 246°
2026-05-05 16:52 52.56191 -51.76176 38651 ft 471 kts 247°
2026-05-05 16:53 52.54040 -51.84477 38635 ft 471 kts 246°
2026-05-05 16:53 52.51464 -51.94377 38635 ft 470 kts 246°
2026-05-05 16:54 52.48884 -52.04252 38637 ft 471 kts 246°
2026-05-05 16:54 52.46304 -52.14083 38627 ft 471 kts 246°
2026-05-05 16:55 52.43704 -52.23945 38645 ft 471 kts 246°
2026-05-05 16:55 52.41111 -52.33743 38630 ft 471 kts 246°
2026-05-05 16:56 52.38489 -52.43601 38639 ft 471 kts 246°
2026-05-05 16:56 52.35880 -52.53374 38644 ft 470 kts 246°
2026-05-05 16:57 52.33250 -52.63182 38641 ft 470 kts 246°
2026-05-05 16:57 52.30614 -52.72969 38627 ft 469 kts 246°
2026-05-05 16:58 52.27990 -52.82672 38644 ft 469 kts 246°
2026-05-05 16:58 52.25343 -52.92416 38637 ft 469 kts 246°
2026-05-05 16:59 52.22691 -53.02140 38633 ft 469 kts 246°
2026-05-05 16:59 52.20046 -53.11799 38631 ft 469 kts 246°
2026-05-05 17:00 52.17376 -53.21504 38648 ft 469 kts 246°
2026-05-05 17:00 52.14695 -53.31210 38631 ft 469 kts 246°
2026-05-05 17:01 52.12031 -53.40820 38627 ft 469 kts 245°
2026-05-05 17:01 52.09340 -53.50482 38627 ft 469 kts 245°
2026-05-05 17:02 52.06639 -53.60143 38627 ft 468 kts 245°
2026-05-05 17:02 52.03935 -53.69772 38627 ft 468 kts 245°
2026-05-05 17:03 52.01236 -53.79344 38620 ft 468 kts 245°
2026-05-05 17:03 51.98515 -53.88956 38635 ft 468 kts 245°
2026-05-05 17:04 51.95784 -53.98563 38624 ft 468 kts 245°
2026-05-05 17:04 51.93045 -54.08158 38627 ft 468 kts 245°
2026-05-05 17:05 51.90320 -54.17669 38633 ft 468 kts 245°
2026-05-05 17:05 51.87569 -54.27230 38624 ft 468 kts 245°
2026-05-05 17:06 51.84816 -54.36760 38641 ft 468 kts 245°
2026-05-05 17:06 51.82049 -54.46299 38646 ft 467 kts 245°
2026-05-05 17:07 51.80657 -54.51055 38782 ft 467 kts 244°
2026-05-05 17:07 51.79089 -54.55642 38985 ft 466 kts 240°
2026-05-05 17:07 51.77441 -54.60147 39119 ft 466 kts 239°
2026-05-05 17:07 51.75778 -54.64587 39259 ft 467 kts 239°
2026-05-05 17:08 51.72374 -54.73535 39496 ft 468 kts 239°
2026-05-05 17:08 51.70663 -54.78009 39601 ft 469 kts 239°
2026-05-05 17:08 51.68946 -54.82498 39638 ft 469 kts 239°
2026-05-05 17:09 51.65541 -54.91393 39639 ft 470 kts 239°
2026-05-05 17:09 51.62101 -55.00365 39642 ft 471 kts 239°
2026-05-05 17:10 51.58652 -55.09333 39645 ft 471 kts 238°
2026-05-05 17:10 51.55195 -55.18287 39641 ft 471 kts 238°
2026-05-05 17:11 51.51751 -55.27177 39631 ft 471 kts 238°
2026-05-05 17:11 51.48276 -55.36116 39631 ft 472 kts 239°
2026-05-05 17:12 51.44803 -55.45019 39634 ft 472 kts 239°
2026-05-05 17:12 51.41310 -55.53941 39636 ft 472 kts 239°
2026-05-05 17:13 51.37807 -55.62859 39638 ft 472 kts 239°
2026-05-05 17:13 51.34327 -55.71687 39622 ft 471 kts 239°
2026-05-05 17:14 51.30825 -55.80540 39625 ft 470 kts 239°
2026-05-05 17:14 51.27320 -55.89372 39625 ft 470 kts 239°
2026-05-05 17:15 51.23837 -55.98116 39629 ft 470 kts 239°
2026-05-05 17:15 51.20330 -56.06894 39629 ft 469 kts 239°
2026-05-05 17:16 51.16821 -56.15642 39630 ft 466 kts 239°
2026-05-05 17:16 51.13322 -56.24340 39626 ft 465 kts 239°
2026-05-05 17:17 51.09821 -56.33014 39626 ft 465 kts 239°
2026-05-05 17:17 51.06338 -56.41615 39628 ft 465 kts 239°
2026-05-05 17:18 51.02823 -56.50263 39625 ft 463 kts 238°
2026-05-05 17:18 50.99337 -56.58812 39631 ft 459 kts 238°
2026-05-05 17:19 50.95885 -56.67251 39636 ft 458 kts 238°
2026-05-05 17:19 50.92406 -56.75730 39634 ft 458 kts 238°
2026-05-05 17:20 50.88922 -56.84194 39637 ft 458 kts 238°
2026-05-05 17:20 50.85439 -56.92625 39662 ft 457 kts 238°
2026-05-05 17:21 50.81958 -57.01021 39656 ft 456 kts 238°
2026-05-05 17:22 50.76757 -57.13524 39666 ft 455 kts 238°
2026-05-05 17:22 50.73262 -57.21893 39670 ft 456 kts 238°
2026-05-05 17:23 50.69756 -57.30263 39687 ft 460 kts 237°
2026-05-05 17:23 50.66210 -57.38698 39688 ft 461 kts 237°
2026-05-05 17:24 50.62677 -57.47074 39707 ft 461 kts 237°
2026-05-05 17:24 50.59117 -57.55486 39699 ft 461 kts 237°
2026-05-05 17:25 50.55549 -57.63888 39719 ft 462 kts 238°
2026-05-05 17:25 50.51969 -57.72298 39751 ft 462 kts 238°
2026-05-05 17:26 50.48379 -57.80702 39728 ft 464 kts 238°
2026-05-05 17:26 50.44794 -57.89066 39755 ft 464 kts 237°
2026-05-05 17:27 50.41182 -57.97465 39749 ft 463 kts 238°
2026-05-05 17:27 50.37569 -58.05841 39766 ft 462 kts 238°
2026-05-05 17:28 50.33982 -58.14129 39774 ft 462 kts 238°
2026-05-05 17:28 50.30366 -58.22461 39764 ft 462 kts 238°
2026-05-05 17:29 50.26742 -58.30784 39762 ft 462 kts 238°
2026-05-05 17:29 50.23104 -58.39110 39768 ft 462 kts 238°
2026-05-05 17:30 50.19496 -58.47345 39777 ft 462 kts 237°
2026-05-05 17:30 50.15864 -58.55609 39777 ft 462 kts 237°
2026-05-05 17:31 50.12219 -58.63874 39771 ft 462 kts 237°
2026-05-05 17:31 50.08572 -58.72119 39779 ft 462 kts 237°
2026-05-05 17:32 50.04919 -58.80352 39778 ft 462 kts 237°
2026-05-05 17:32 50.01259 -58.88573 39788 ft 462 kts 237°
2026-05-05 17:33 49.97590 -58.96791 39787 ft 462 kts 237°
2026-05-05 17:33 49.93933 -59.04955 39795 ft 462 kts 237°
2026-05-05 17:34 49.90252 -59.13149 39799 ft 461 kts 237°
2026-05-05 17:34 49.86576 -59.21306 39790 ft 461 kts 237°
2026-05-05 17:35 49.82917 -59.29400 39795 ft 461 kts 237°
2026-05-05 17:35 49.79232 -59.37526 39795 ft 462 kts 237°
2026-05-05 17:36 49.75529 -59.45669 39799 ft 462 kts 237°
2026-05-05 17:36 49.71819 -59.53802 39801 ft 462 kts 237°
2026-05-05 17:37 49.68108 -59.61910 39796 ft 462 kts 237°
2026-05-05 17:37 49.64388 -59.70015 39785 ft 462 kts 237°
2026-05-05 17:38 49.60683 -59.78061 39795 ft 462 kts 237°
2026-05-05 17:38 49.56954 -59.86137 39795 ft 462 kts 237°
2026-05-05 17:39 49.53241 -59.94154 39811 ft 462 kts 237°
2026-05-05 17:39 49.50120 -60.00872 39799 ft 461 kts 237°
2026-05-05 17:39 49.47696 -60.06070 39832 ft 436 kts 237°
2026-05-05 17:40 49.45968 -60.09764 39780 ft 417 kts 237°
2026-05-05 17:40 49.43149 -60.15797 39799 ft 420 kts 237°
2026-05-05 17:41 49.39697 -60.23187 39818 ft 429 kts 237°
2026-05-05 17:41 49.36168 -60.30713 39817 ft 438 kts 237°
2026-05-05 17:42 49.32584 -60.38325 39818 ft 447 kts 237°
2026-05-05 17:42 49.28898 -60.46127 39818 ft 456 kts 237°
2026-05-05 17:43 49.25147 -60.54043 39807 ft 460 kts 236°
2026-05-05 17:43 49.21383 -60.61960 39809 ft 459 kts 236°
2026-05-05 17:44 49.17638 -60.69817 39797 ft 459 kts 236°
2026-05-05 17:44 49.13882 -60.77673 39817 ft 455 kts 237°
2026-05-05 17:45 49.10169 -60.85418 39819 ft 454 kts 237°
2026-05-05 17:45 49.06439 -60.93180 39820 ft 453 kts 236°
2026-05-05 17:46 49.02705 -61.00927 39812 ft 453 kts 236°
2026-05-05 17:46 48.98967 -61.08656 39811 ft 451 kts 236°
2026-05-05 17:47 48.95243 -61.16335 39820 ft 450 kts 236°
2026-05-05 17:47 48.91531 -61.23967 39815 ft 447 kts 236°
2026-05-05 17:48 48.87856 -61.31504 39813 ft 446 kts 236°
2026-05-05 17:48 48.84150 -61.39083 39810 ft 446 kts 236°
2026-05-05 17:49 48.80453 -61.46620 39808 ft 444 kts 236°
2026-05-05 17:49 48.76755 -61.54140 39812 ft 444 kts 236°
2026-05-05 17:50 48.73074 -61.61605 39812 ft 444 kts 236°
2026-05-05 17:50 48.69373 -61.69088 39801 ft 443 kts 236°
2026-05-05 17:51 48.65689 -61.76517 39812 ft 443 kts 236°
2026-05-05 17:51 48.61981 -61.83973 39801 ft 442 kts 236°
2026-05-05 17:52 48.58287 -61.91382 39801 ft 442 kts 236°
2026-05-05 17:52 48.54575 -61.98805 39804 ft 442 kts 236°
2026-05-05 17:53 48.50857 -62.06220 39803 ft 442 kts 236°
2026-05-05 17:53 48.47138 -62.13618 39804 ft 442 kts 236°
2026-05-05 17:54 48.43443 -62.20946 39801 ft 442 kts 235°
2026-05-05 17:54 48.39716 -62.28319 39794 ft 442 kts 235°
2026-05-05 17:55 48.35980 -62.35691 39786 ft 442 kts 235°
2026-05-05 17:55 48.32263 -62.43004 39790 ft 442 kts 235°
2026-05-05 17:56 48.28509 -62.50368 39789 ft 442 kts 235°
2026-05-05 17:56 48.24785 -62.57656 39784 ft 442 kts 234°
2026-05-05 17:57 48.21016 -62.65010 39777 ft 442 kts 234°
2026-05-05 17:57 48.17281 -62.72279 39778 ft 442 kts 234°
2026-05-05 17:58 48.13516 -62.79587 39774 ft 442 kts 234°
2026-05-05 17:58 48.09775 -62.86828 39774 ft 442 kts 234°
2026-05-05 17:59 48.06000 -62.94116 39771 ft 442 kts 234°
2026-05-05 17:59 48.02259 -63.01320 39771 ft 441 kts 234°
2026-05-05 18:00 47.98489 -63.08558 39764 ft 440 kts 234°
2026-05-05 18:00 47.94712 -63.15793 39768 ft 440 kts 234°
2026-05-05 18:01 47.90960 -63.22961 39765 ft 440 kts 234°
2026-05-05 18:01 47.87177 -63.30167 39762 ft 440 kts 234°
2026-05-05 18:02 47.83421 -63.37303 39761 ft 440 kts 234°
2026-05-05 18:02 47.79625 -63.44496 39761 ft 440 kts 234°
2026-05-05 18:03 47.75849 -63.51633 39748 ft 440 kts 234°
2026-05-05 18:03 47.72052 -63.58790 39742 ft 440 kts 234°
2026-05-05 18:04 47.68279 -63.65884 39743 ft 440 kts 234°
2026-05-05 18:04 47.64471 -63.73025 39743 ft 440 kts 234°
2026-05-05 18:05 47.60683 -63.80111 39748 ft 440 kts 234°
2026-05-05 18:05 47.56871 -63.87222 39749 ft 440 kts 233°
2026-05-05 18:06 47.53053 -63.94326 39743 ft 440 kts 233°
2026-05-05 18:06 47.49258 -64.01369 39746 ft 440 kts 233°
2026-05-05 18:07 47.45432 -64.08450 39743 ft 440 kts 233°
2026-05-05 18:07 47.41598 -64.15528 39730 ft 440 kts 233°
2026-05-05 18:08 47.37778 -64.22562 39746 ft 438 kts 233°
2026-05-05 18:08 47.33984 -64.29534 39740 ft 437 kts 233°
2026-05-05 18:09 47.30155 -64.36548 39736 ft 437 kts 233°
2026-05-05 18:09 47.26357 -64.43489 39722 ft 437 kts 233°
2026-05-05 18:10 47.22522 -64.50478 39743 ft 438 kts 233°
2026-05-05 18:10 47.18705 -64.57418 39744 ft 438 kts 233°
2026-05-05 18:11 47.14863 -64.64386 39728 ft 438 kts 233°
2026-05-05 18:11 47.11031 -64.71316 39727 ft 438 kts 233°
2026-05-05 18:12 47.07183 -64.78259 39727 ft 437 kts 233°
2026-05-05 18:12 47.03361 -64.85138 39728 ft 436 kts 233°
2026-05-05 18:13 46.99518 -64.92037 39728 ft 436 kts 233°
2026-05-05 18:13 46.95693 -64.98886 39733 ft 436 kts 233°
2026-05-05 18:14 46.91852 -65.05748 39722 ft 434 kts 233°
2026-05-05 18:14 46.88022 -65.12571 39737 ft 433 kts 233°
2026-05-05 18:15 46.84197 -65.19370 39739 ft 433 kts 233°
2026-05-05 18:15 46.80367 -65.26161 39742 ft 432 kts 233°
2026-05-05 18:16 46.76539 -65.32931 39744 ft 431 kts 233°
2026-05-05 18:16 46.72740 -65.39633 39741 ft 431 kts 233°
2026-05-05 18:17 46.68913 -65.46369 39748 ft 431 kts 233°
2026-05-05 18:17 46.65090 -65.53082 39750 ft 431 kts 232°
2026-05-05 18:18 46.61262 -65.59786 39758 ft 430 kts 233°
2026-05-05 18:18 46.57459 -65.66431 39762 ft 429 kts 233°
2026-05-05 18:19 46.53628 -65.73108 39768 ft 429 kts 233°
2026-05-05 18:19 46.49798 -65.79767 39759 ft 429 kts 232°
2026-05-05 18:20 46.45964 -65.86418 39758 ft 429 kts 232°
2026-05-05 18:20 46.42153 -65.93012 39761 ft 428 kts 232°
2026-05-05 18:21 46.38323 -65.99623 39763 ft 428 kts 232°
2026-05-05 18:21 46.34476 -66.06248 39766 ft 428 kts 232°
2026-05-05 18:22 46.30656 -66.12812 39764 ft 428 kts 232°
2026-05-05 18:22 46.26812 -66.19400 39763 ft 427 kts 232°
2026-05-05 18:23 46.22979 -66.25953 39761 ft 427 kts 232°
2026-05-05 18:23 46.19167 -66.32456 39768 ft 427 kts 232°
2026-05-05 18:24 46.15317 -66.39007 39762 ft 427 kts 232°
2026-05-05 18:24 46.11499 -66.45489 39770 ft 426 kts 232°
2026-05-05 18:25 46.07657 -66.51998 39761 ft 426 kts 232°
2026-05-05 18:25 46.03811 -66.58496 39752 ft 426 kts 232°
2026-05-05 18:26 45.99956 -66.64995 39759 ft 426 kts 232°
2026-05-05 18:26 45.96102 -66.71477 39758 ft 426 kts 232°
2026-05-05 18:27 45.92245 -66.77948 39765 ft 426 kts 232°
2026-05-05 18:27 45.88387 -66.84406 39755 ft 426 kts 232°
2026-05-05 18:28 45.82610 -66.94050 39751 ft 426 kts 232°
2026-05-05 18:28 45.79398 -66.99397 39755 ft 425 kts 232°
2026-05-05 18:29 45.74915 -67.06843 39769 ft 424 kts 232°
2026-05-05 18:29 45.71686 -67.12191 39768 ft 423 kts 232°
2026-05-05 18:30 45.67855 -67.18527 39761 ft 423 kts 232°
2026-05-05 18:30 45.63993 -67.24899 39765 ft 424 kts 232°
2026-05-05 18:31 45.60123 -67.31270 39763 ft 424 kts 232°
2026-05-05 18:31 45.56253 -67.37624 39770 ft 424 kts 231°
2026-05-05 18:32 45.52378 -67.43972 39778 ft 424 kts 231°
2026-05-05 18:32 45.48530 -67.50263 39782 ft 424 kts 231°
2026-05-05 18:33 45.44646 -67.56598 39777 ft 424 kts 231°
2026-05-05 18:33 45.40758 -67.62924 39775 ft 424 kts 231°
2026-05-05 18:34 45.36870 -67.69237 39788 ft 424 kts 231°
2026-05-05 18:34 45.32967 -67.75555 39792 ft 425 kts 231°
2026-05-05 18:35 45.29004 -67.81801 39792 ft 426 kts 231°
2026-05-05 18:35 45.25055 -67.88006 39809 ft 426 kts 230°
2026-05-05 18:36 45.21091 -67.94232 39777 ft 424 kts 230°
2026-05-05 18:36 45.17130 -68.00443 39798 ft 425 kts 230°
2026-05-05 18:37 45.13162 -68.06654 39804 ft 425 kts 230°
2026-05-05 18:37 45.09188 -68.12860 39805 ft 425 kts 230°
2026-05-05 18:38 45.05227 -68.19031 39800 ft 425 kts 230°
2026-05-05 18:38 45.01240 -68.25231 39810 ft 426 kts 230°
2026-05-05 18:39 44.97275 -68.31381 39810 ft 426 kts 230°
2026-05-05 18:39 44.93268 -68.37582 39816 ft 426 kts 230°
2026-05-05 18:40 44.89292 -68.43723 39812 ft 426 kts 230°
2026-05-05 18:40 44.85287 -68.49893 39800 ft 427 kts 230°
2026-05-05 18:41 44.81268 -68.56073 39784 ft 427 kts 230°
2026-05-05 18:41 44.77243 -68.62248 39781 ft 427 kts 230°
2026-05-05 18:42 44.73215 -68.68413 39781 ft 427 kts 230°
2026-05-05 18:42 44.69211 -68.74529 39782 ft 427 kts 230°
2026-05-05 18:43 44.65181 -68.80670 39781 ft 425 kts 230°
2026-05-05 18:43 44.61186 -68.86744 39785 ft 425 kts 230°
2026-05-05 18:44 44.57174 -68.92832 39777 ft 425 kts 230°
2026-05-05 18:44 44.53140 -68.98940 39788 ft 426 kts 230°
2026-05-05 18:45 44.49105 -69.05035 39797 ft 426 kts 230°
2026-05-05 18:45 44.45076 -69.11108 39804 ft 426 kts 230°
2026-05-05 18:46 44.41061 -69.17147 39802 ft 426 kts 229°
2026-05-05 18:46 44.37008 -69.23229 39799 ft 427 kts 229°
2026-05-05 18:47 44.32953 -69.29302 39807 ft 427 kts 229°
2026-05-05 18:47 44.28888 -69.35376 39818 ft 427 kts 229°
2026-05-05 18:48 44.24826 -69.41433 39818 ft 428 kts 229°
2026-05-05 18:48 44.20751 -69.47496 39830 ft 428 kts 229°
2026-05-05 18:49 44.16696 -69.53516 39833 ft 428 kts 229°
2026-05-05 18:49 44.12611 -69.59567 39829 ft 427 kts 229°
2026-05-05 18:50 44.08534 -69.65594 39831 ft 428 kts 229°
2026-05-05 18:50 44.04446 -69.71624 39832 ft 428 kts 229°
2026-05-05 18:51 44.00370 -69.77623 39832 ft 428 kts 229°
2026-05-05 18:51 43.96294 -69.83610 39831 ft 428 kts 229°
2026-05-05 18:52 43.92194 -69.89618 39823 ft 428 kts 229°
2026-05-05 18:52 43.88081 -69.95633 39822 ft 428 kts 229°
2026-05-05 18:53 43.83994 -70.01597 39823 ft 429 kts 229°
2026-05-05 18:53 43.79875 -70.07595 39819 ft 428 kts 229°
2026-05-05 18:54 43.75786 -70.13537 39805 ft 429 kts 228°
2026-05-05 18:54 43.71666 -70.19510 39810 ft 429 kts 228°
2026-05-05 18:55 43.67545 -70.25473 39806 ft 429 kts 228°
2026-05-05 18:55 43.63419 -70.31430 39819 ft 428 kts 228°
2026-05-05 18:56 43.59295 -70.37372 39797 ft 428 kts 228°
2026-05-05 18:56 43.55196 -70.43265 39793 ft 427 kts 228°
2026-05-05 18:57 43.51075 -70.49178 39786 ft 427 kts 228°
2026-05-05 18:57 43.46947 -70.55089 39785 ft 427 kts 228°
2026-05-05 18:58 43.42530 -70.60527 39788 ft 431 kts 217°
2026-05-05 18:58 43.37121 -70.64098 39786 ft 437 kts 204°
2026-05-05 18:59 43.31381 -70.66896 39776 ft 438 kts 203°
2026-05-05 18:59 43.25629 -70.69700 39791 ft 438 kts 204°
2026-05-05 19:00 43.19891 -70.72508 39786 ft 437 kts 204°
2026-05-05 19:00 43.14182 -70.75301 39785 ft 437 kts 204°
2026-05-05 19:01 43.08437 -70.78107 39786 ft 437 kts 204°
2026-05-05 19:01 43.02693 -70.80907 39789 ft 438 kts 204°
2026-05-05 19:02 42.96960 -70.83697 39775 ft 438 kts 203°
2026-05-05 19:02 42.91210 -70.86490 39790 ft 439 kts 203°
2026-05-05 19:03 42.85484 -70.89266 39810 ft 439 kts 203°
2026-05-05 19:03 42.79731 -70.92053 39791 ft 438 kts 203°
2026-05-05 19:04 42.73967 -70.94834 39807 ft 439 kts 203°
2026-05-05 19:04 42.68236 -70.97592 39831 ft 439 kts 203°
2026-05-05 19:05 42.62464 -71.00367 39833 ft 439 kts 203°
2026-05-05 19:05 42.56684 -71.03143 39832 ft 440 kts 203°
2026-05-05 19:06 42.50938 -71.05902 39832 ft 440 kts 203°
2026-05-05 19:06 42.45145 -71.08664 39833 ft 440 kts 203°
2026-05-05 19:07 42.40332 -71.10958 39827 ft 441 kts 203°
2026-05-05 19:07 42.33553 -71.14185 39834 ft 441 kts 203°
2026-05-05 19:08 42.28833 -71.16429 39850 ft 441 kts 203°
2026-05-05 19:08 42.23027 -71.19183 39846 ft 442 kts 203°
2026-05-05 19:09 42.17231 -71.21927 39868 ft 443 kts 202°
2026-05-05 19:09 42.11406 -71.24680 39870 ft 443 kts 202°
2026-05-05 19:10 42.05610 -71.27414 39869 ft 443 kts 202°
2026-05-05 19:10 41.99770 -71.30163 39433 ft 443 kts 202°
2026-05-05 19:11 41.96878 -71.31522 38849 ft 444 kts 202°
2026-05-05 19:11 41.93968 -71.32889 38204 ft 443 kts 202°
2026-05-05 19:11 41.91055 -71.34255 37601 ft 441 kts 202°
2026-05-05 19:11 41.88158 -71.35612 36992 ft 439 kts 202°
2026-05-05 19:12 41.85272 -71.36963 36415 ft 438 kts 202°
2026-05-05 19:12 41.82390 -71.38312 35847 ft 437 kts 202°
2026-05-05 19:12 41.79527 -71.39650 35228 ft 437 kts 202°
2026-05-05 19:12 41.76688 -71.40976 34629 ft 437 kts 202°
2026-05-05 19:13 41.73839 -71.42413 34036 ft 435 kts 207°
2026-05-05 19:13 41.71221 -71.44409 33468 ft 429 kts 218°
2026-05-05 19:13 41.68886 -71.46867 32956 ft 424 kts 222°
2026-05-05 19:13 41.67386 -71.48546 32635 ft 422 kts 222°
2026-05-05 19:14 41.65146 -71.51067 32150 ft 418 kts 222°
2026-05-05 19:14 41.62207 -71.54365 31529 ft 413 kts 222°
2026-05-05 19:14 41.60009 -71.56823 31042 ft 410 kts 223°
2026-05-05 19:14 41.58527 -71.58476 30710 ft 408 kts 223°
2026-05-05 19:15 41.56381 -71.60867 30260 ft 405 kts 223°
2026-05-05 19:15 41.54222 -71.63269 29760 ft 403 kts 223°
2026-05-05 19:15 41.52077 -71.65654 29270 ft 399 kts 223°
2026-05-05 19:15 41.49941 -71.68025 28804 ft 395 kts 223°
2026-05-05 19:16 41.47839 -71.70357 28363 ft 390 kts 223°
2026-05-05 19:16 41.45780 -71.72639 27908 ft 387 kts 223°
2026-05-05 19:16 41.43715 -71.74925 27447 ft 383 kts 223°
2026-05-05 19:16 41.41671 -71.77187 26987 ft 380 kts 223°
2026-05-05 19:17 41.39639 -71.79433 26531 ft 377 kts 223°
2026-05-05 19:17 41.37621 -71.81662 26090 ft 378 kts 223°
2026-05-05 19:17 41.35605 -71.83888 25615 ft 375 kts 222°
2026-05-05 19:17 41.33621 -71.86075 25160 ft 373 kts 222°
2026-05-05 19:18 41.31628 -71.88271 24697 ft 370 kts 222°
2026-05-05 19:18 41.29653 -71.90445 24243 ft 368 kts 222°
2026-05-05 19:18 41.27670 -71.92630 23984 ft 373 kts 223°
2026-05-05 19:18 41.25662 -71.94845 23928 ft 375 kts 223°
2026-05-05 19:19 41.23652 -71.97048 23839 ft 372 kts 223°
2026-05-05 19:19 41.21649 -71.99241 23122 ft 374 kts 222°
2026-05-05 19:19 41.19636 -72.01448 22392 ft 375 kts 222°
2026-05-05 19:19 41.17675 -72.03592 22116 ft 365 kts 222°
2026-05-05 19:20 41.15726 -72.05723 21859 ft 361 kts 222°
2026-05-05 19:20 41.13788 -72.07843 21595 ft 361 kts 222°
2026-05-05 19:20 41.11879 -72.09983 21334 ft 359 kts 225°
2026-05-05 19:20 41.10239 -72.12456 21083 ft 354 kts 237°
2026-05-05 19:21 41.09112 -72.15344 20835 ft 351 kts 249°
2026-05-05 19:21 41.08311 -72.18401 20578 ft 349 kts 252°
2026-05-05 19:21 41.07581 -72.21406 20238 ft 342 kts 252°
2026-05-05 19:21 41.06852 -72.24411 19803 ft 339 kts 252°
2026-05-05 19:22 41.06125 -72.27375 19344 ft 337 kts 252°
2026-05-05 19:22 41.05398 -72.30325 18880 ft 335 kts 251°
2026-05-05 19:22 41.04683 -72.33212 18420 ft 334 kts 251°
2026-05-05 19:22 41.03958 -72.36129 17926 ft 332 kts 251°
2026-05-05 19:23 41.03235 -72.39033 17468 ft 328 kts 252°
2026-05-05 19:23 41.02522 -72.41888 17070 ft 323 kts 252°
2026-05-05 19:23 41.01824 -72.44685 16635 ft 320 kts 252°
2026-05-05 19:23 41.01123 -72.47484 16180 ft 317 kts 252°
2026-05-05 19:24 41.00431 -72.50248 15744 ft 315 kts 252°
2026-05-05 19:24 40.99743 -72.52992 15297 ft 313 kts 252°
2026-05-05 19:24 40.99060 -72.55714 14863 ft 310 kts 252°
2026-05-05 19:24 40.98380 -72.58418 14422 ft 308 kts 252°
2026-05-05 19:25 40.97712 -72.61075 14009 ft 305 kts 253°
2026-05-05 19:25 40.97043 -72.63731 13541 ft 303 kts 253°
2026-05-05 19:25 40.96385 -72.66343 13262 ft 292 kts 252°
2026-05-05 19:25 40.95756 -72.68833 13128 ft 278 kts 252°
2026-05-05 19:26 40.95155 -72.71208 12978 ft 265 kts 252°
2026-05-05 19:26 40.94584 -72.73469 12846 ft 254 kts 252°
2026-05-05 19:26 40.94035 -72.75637 12594 ft 249 kts 252°
2026-05-05 19:26 40.93476 -72.77794 12274 ft 246 kts 250°
2026-05-05 19:27 40.92661 -72.79795 12063 ft 254 kts 236°
2026-05-05 19:27 40.91375 -72.81467 11868 ft 264 kts 223°
2026-05-05 19:27 40.89892 -72.82920 11553 ft 265 kts 221°
2026-05-05 19:27 40.88391 -72.84330 11325 ft 263 kts 220°
2026-05-05 19:28 40.86901 -72.85735 11088 ft 261 kts 221°
2026-05-05 19:28 40.85450 -72.87113 10872 ft 259 kts 220°
2026-05-05 19:28 40.83988 -72.88506 10657 ft 258 kts 221°
2026-05-05 19:28 40.82534 -72.89895 10442 ft 256 kts 221°
2026-05-05 19:29 40.81094 -72.91271 10209 ft 255 kts 221°
2026-05-05 19:29 40.79663 -72.92640 10012 ft 253 kts 220°
2026-05-05 19:29 40.78237 -72.94003 9783 ft 252 kts 221°
2026-05-05 19:29 40.76821 -72.95357 9522 ft 251 kts 221°
2026-05-05 19:30 40.75404 -72.96712 9328 ft 251 kts 220°
2026-05-05 19:30 40.74011 -72.98043 9116 ft 250 kts 220°
2026-05-05 19:30 40.72603 -72.99388 8903 ft 249 kts 220°
2026-05-05 19:30 40.71204 -73.00724 8689 ft 249 kts 220°
2026-05-05 19:31 40.69859 -73.02150 8457 ft 246 kts 228°
2026-05-05 19:31 40.68904 -73.03984 8268 ft 243 kts 246°
2026-05-05 19:31 40.68542 -73.06169 8058 ft 246 kts 263°
2026-05-05 19:31 40.68523 -73.08397 7855 ft 247 kts 266°
2026-05-05 19:32 40.68554 -73.10657 7631 ft 246 kts 267°
2026-05-05 19:32 40.68582 -73.12923 7408 ft 246 kts 266°
2026-05-05 19:32 40.68604 -73.15177 7207 ft 246 kts 266°
2026-05-05 19:32 40.68620 -73.17433 6996 ft 245 kts 266°
2026-05-05 19:33 40.68634 -73.19653 6795 ft 245 kts 266°
2026-05-05 19:33 40.68646 -73.21925 6583 ft 245 kts 266°
2026-05-05 19:33 40.68657 -73.24143 6366 ft 244 kts 265°
2026-05-05 19:33 40.68667 -73.26381 6151 ft 244 kts 266°
2026-05-05 19:34 40.68676 -73.28619 5936 ft 244 kts 265°
2026-05-05 19:34 40.68685 -73.30860 5716 ft 245 kts 265°
2026-05-05 19:34 40.68713 -73.33122 5513 ft 248 kts 269°
2026-05-05 19:35 40.69837 -73.37487 5087 ft 259 kts 290°
2026-05-05 19:35 40.70656 -73.39610 4870 ft 260 kts 290°
2026-05-05 19:35 40.71474 -73.41729 4628 ft 260 kts 290°
2026-05-05 19:35 40.72288 -73.43858 4415 ft 260 kts 290°
2026-05-05 19:36 40.73099 -73.45990 4192 ft 260 kts 290°
2026-05-05 19:36 40.73912 -73.48134 3967 ft 260 kts 290°
2026-05-05 19:36 40.74720 -73.50271 3749 ft 260 kts 290°
2026-05-05 19:36 40.75518 -73.52387 3518 ft 260 kts 290°
2026-05-05 19:37 40.76324 -73.54528 3316 ft 260 kts 290°
2026-05-05 19:37 40.77126 -73.56646 3141 ft 252 kts 289°
2026-05-05 19:37 40.77894 -73.58671 3025 ft 240 kts 289°
2026-05-05 19:37 40.78561 -73.60628 2879 ft 224 kts 280°
2026-05-05 19:38 40.78714 -73.62524 2782 ft 200 kts 256°
2026-05-05 19:38 40.78279 -73.64165 2697 ft 182 kts 234°
2026-05-05 19:38 40.77457 -73.65337 2632 ft 168 kts 215°
2026-05-05 19:38 40.76485 -73.66163 2576 ft 166 kts 210°
2026-05-05 19:39 40.75488 -73.66931 2493 ft 167 kts 211°
2026-05-05 19:39 40.74492 -73.67697 2375 ft 161 kts 211°
2026-05-05 19:39 40.73563 -73.68419 2310 ft 148 kts 210°
2026-05-05 19:39 40.72715 -73.69076 2194 ft 139 kts 209°
2026-05-05 19:40 40.71879 -73.69708 1975 ft 140 kts 209°
2026-05-05 19:40 40.71029 -73.70387 1649 ft 146 kts 210°
2026-05-05 19:40 40.70135 -73.71087 1341 ft 149 kts 208°
2026-05-05 19:40 40.69255 -73.71767 1131 ft 147 kts 208°
2026-05-05 19:41 40.68404 -73.72441 925 ft 140 kts 208°
2026-05-05 19:41 40.67613 -73.73102 720 ft 129 kts 207°
2026-05-05 19:41 40.66879 -73.73668 560 ft 114 kts 202°
2026-05-05 19:41 40.66198 -73.74164 416 ft 111 kts 207°
2026-05-05 19:42 40.65530 -73.74715 271 ft 112 kts 206°
2026-05-05 19:42 40.64860 -73.75204 151 ft 107 kts 209°
2026-05-05 19:42 40.64212 -73.75763 43 ft 111 kts 186°
2026-05-05 19:42 40.63531 -73.76262 281 ft 134 kts 207°
2026-05-05 19:43 40.62562 -73.77043 674 ft 191 kts 206°
2026-05-05 19:43 40.61199 -73.77941 1278 ft 245 kts 201°
2026-05-05 19:43 40.59461 -73.78478 2285 ft 256 kts 180°
2026-05-05 19:43 40.57826 -73.77653 3347 ft 260 kts 153°
2026-05-05 19:44 40.56677 -73.75798 4036 ft 278 kts 114°
2026-05-05 19:44 40.56708 -73.73237 4775 ft 291 kts 69°
2026-05-05 19:44 40.57966 -73.71235 5568 ft 283 kts 28°
2026-05-05 19:44 40.59775 -73.70276 5985 ft 293 kts 14°
2026-05-05 19:45 40.61866 -73.69352 5546 ft 340 kts 17°
2026-05-05 19:45 40.64170 -73.68093 4893 ft 385 kts 22°
2026-05-05 19:45 40.66681 -73.66496 4290 ft 406 kts 24°
2026-05-05 19:45 40.69199 -73.64849 4182 ft 399 kts 25°
2026-05-05 19:46 40.71656 -73.63239 4245 ft 392 kts 25°
2026-05-05 19:46 40.73959 -73.61251 3570 ft 397 kts 37°
2026-05-05 19:46 40.76151 -73.59133 2956 ft 379 kts 31°
2026-05-05 19:46 40.78508 -73.58246 3004 ft 337 kts 351°
2026-05-05 19:47 40.80499 -73.59414 2812 ft 298 kts 311°
2026-05-05 19:47 40.81367 -73.61671 2789 ft 281 kts 270°
2026-05-05 19:47 40.80764 -73.64050 2433 ft 296 kts 225°
2026-05-05 19:47 40.79043 -73.65679 2442 ft 308 kts 204°
2026-05-05 19:48 40.76968 -73.66170 2412 ft 303 kts 182°
2026-05-05 19:48 40.74892 -73.66571 2412 ft 309 kts 203°
2026-05-05 19:48 40.73093 -73.68215 2598 ft 319 kts 223°
2026-05-05 19:48 40.71523 -73.70176 2511 ft 300 kts 216°
2026-05-05 19:49 40.69808 -73.71550 2156 ft 278 kts 208°
2026-05-05 19:49 40.68665 -73.72329 1577 ft 277 kts 205°
2026-05-05 19:49 40.66509 -73.73917 741 ft 257 kts 211°
2026-05-05 19:49 40.65034 -73.75117 660 ft 252 kts 208°
2026-05-05 19:50 40.63347 -73.76335 1031 ft 291 kts 205°
2026-05-05 19:50 40.61602 -73.77040 1845 ft 235 kts 171°
2026-05-05 19:50 40.60235 -73.75974 2520 ft 248 kts 133°
2026-05-05 19:50 40.59694 -73.73732 2651 ft 274 kts 91°
2026-05-05 19:51 40.60387 -73.71376 2808 ft 288 kts 47°
2026-05-05 19:51 40.62083 -73.70096 3388 ft 275 kts 20°
2026-05-05 19:51 40.63840 -73.69155 3177 ft 270 kts 18°
2026-05-05 19:51 40.65559 -73.68144 2804 ft 270 kts 23°
2026-05-05 19:52 40.67270 -73.67137 2456 ft 269 kts 21°
2026-05-05 19:52 40.68973 -73.66235 2340 ft 256 kts 18°
2026-05-05 19:52 40.70618 -73.65466 2234 ft 246 kts 17°
2026-05-05 19:52 40.72237 -73.64793 1989 ft 241 kts 15°
2026-05-05 19:53 40.73738 -73.64025 1891 ft 229 kts 31°
2026-05-05 19:53 40.75002 -73.62819 1772 ft 221 kts 32°
2026-05-05 19:53 40.76393 -73.62800 1778 ft 204 kts 321°
2026-05-05 19:53 40.76981 -73.64200 1702 ft 167 kts 255°
2026-05-05 19:54 40.76528 -73.65561 1694 ft 166 kts 226°
2026-05-05 19:54 40.75712 -73.66619 1518 ft 166 kts 216°
2026-05-05 19:54 40.74790 -73.67536 1418 ft 167 kts 213°
2026-05-05 19:54 40.73781 -73.68371 1620 ft 171 kts 208°
2026-05-05 19:55 40.72771 -73.69136 1679 ft 160 kts 208°
2026-05-05 19:55 40.71841 -73.69773 1709 ft 140 kts 204°
2026-05-05 19:55 40.71019 -73.70366 1590 ft 132 kts 208°
2026-05-05 19:55 40.70267 -73.70974 1366 ft 122 kts 210°
2026-05-05 19:56 40.69557 -73.71533 1158 ft 116 kts 206°
2026-05-05 19:56 40.68855 -73.72054 1050 ft 117 kts 207°
2026-05-05 19:56 40.68171 -73.72626 909 ft 120 kts 208°
2026-05-05 19:56 40.67461 -73.73177 686 ft 118 kts 204°
2026-05-05 19:57 40.66783 -73.73713 548 ft 111 kts 210°
2026-05-05 19:57 40.66353 -73.74092 472 ft 110 kts 207°
2026-05-05 19:57 40.65469 -73.74737 252 ft 110 kts 205°
2026-05-05 19:57 40.64816 -73.75264 134 ft 111 kts 200°
2026-05-05 19:58 40.64168 -73.75756 34 ft 100 kts 215°
2026-05-05 19:58 40.63726 -73.76112 28 ft 36 kts 210°
2026-05-05 19:58 40.63572 -73.76230 27 ft 32 kts 210°
2026-05-05 19:58 40.63340 -73.76441 28 ft 49 kts 224°
2026-05-05 19:59 40.63245 -73.76619 32 ft 12 kts 247°
2026-05-05 19:59 40.63240 -73.76641 30 ft 0 kts 256°
2026-05-05 20:03 40.63236 -73.76661 37 ft 14 kts 256°
2026-05-05 20:03 40.63220 -73.76799 27 ft 15 kts 273°
2026-05-05 20:04 40.63257 -73.76930 28 ft 15 kts 303°
2026-05-05 20:04 40.63323 -73.77042 28 ft 15 kts 311°
2026-05-05 20:04 40.63395 -73.77149 30 ft 15 kts 312°
2026-05-05 20:04 40.63467 -73.77256 31 ft 16 kts 310°
2026-05-05 20:05 40.63530 -73.77363 29 ft 9 kts 304°
2026-05-05 20:05 40.63574 -73.77457 29 ft 16 kts 301°
2026-05-05 20:05 40.63618 -73.77560 28 ft 15 kts 285°
2026-05-05 20:05 40.63583 -73.77644 26 ft 11 kts 217°
2026-05-05 20:06 40.63527 -73.77728 27 ft 4 kts 257°
2026-05-05 20:06 40.63517 -73.77808 29 ft 14 kts 242°
2026-05-05 20:06 40.63453 -73.77874 30 ft 8 kts 215°
2026-05-05 20:06 40.63415 -73.77937 30 ft 12 kts 248°
2026-05-05 20:07 40.63412 -73.78032 30 ft 13 kts 288°
2026-05-05 20:07 40.63445 -73.78116 31 ft 11 kts 300°
2026-05-05 20:07 40.63494 -73.78216 31 ft 15 kts 310°
2026-05-05 20:07 40.63563 -73.78258 30 ft 11 kts
2026-05-05 20:08 40.63636 -73.78257 29 ft 15 kts 355°
2026-05-05 20:08 40.63714 -73.78270 29 ft 15 kts 353°
2026-05-05 20:08 40.63804 -73.78285 29 ft 11 kts 354°
2026-05-05 20:08 40.63844 -73.78252 29 ft 7 kts 68°
2026-05-05 20:09 40.63854 -73.78196 29 ft 7 kts 81°
2026-05-05 20:09 40.63855 -73.78187 29 ft 0 kts 81°
2026-05-05 20:09 40.63855 -73.78188 29 ft 0 kts 81°
2026-05-05 20:14 40.63855 -73.78189 29 ft 0 kts 81°
2026-05-05 20:19 40.63855 -73.78190 29 ft 0 kts 81°
2026-05-05 20:25 40.63855 -73.78191 29 ft 0 kts 81°
2026-05-05 20:30 40.63855 -73.78192 29 ft 0 kts 81°
2026-05-05 20:35 40.63855 -73.78193 29 ft 0 kts 81°
2026-05-05 20:38 40.63854 -73.78193 29 ft 0 kts 81°
2026-05-05 20:40 40.63854 -73.78194 29 ft 0 kts 81°
2026-05-05 20:45 40.63854 -73.78195 29 ft 0 kts 81°
2026-05-05 20:50 40.63854 -73.78196 29 ft 0 kts 81°